KW1M Weather Reports


time (UTC)temp
F
wind
direction
speed
knots
gust
knots
rain 1hr
in
rain 24hr
in
rain mn
in
humidity
%
barometer
mb
20260504211548 67 158 2.6 11.3 0.00 0.00 0.00 36 1006.9
20260504210059 67 172 1.7 14.8 0.00 0.00 0.00 36 1007.0
20260504204547 69 165 6.1 17.4 0.00 0.00 0.00 34 1006.9
20260504203043 69 243 7.0 17.4 0.00 0.00 0.00 34 1006.9
20260504201535 68 209 6.1 16.5 0.00 0.00 0.00 36 1006.9
20260504200035 68 250 4.3 13.9 0.00 0.00 0.00 34 1006.9
20260504194550 69 197 6.1 13.9 0.00 0.00 0.00 35 1007.0
20260504193031 68 149 5.2 13.0 0.00 0.00 0.00 35 1007.0
20260504191532 68 221 4.3 13.9 0.00 0.00 0.00 35 1007.0
20260504190031 68 224 6.1 18.2 0.00 0.00 0.00 34 1007.3
20260504184533 67 176 6.1 16.5 0.00 0.00 0.00 36 1007.2
20260504183020 67 167 8.7 20.9 0.00 0.00 0.00 35 1007.4
20260504181519 66 143 7.8 20.0 0.00 0.00 0.00 35 1007.5
20260504180020 68 210 7.8 16.5 0.00 0.00 0.00 34 1007.5
20260504174512 65 290 5.2 16.5 0.00 0.00 0.00 37 1007.6
20260504173015 64 264 6.1 16.5 0.00 0.00 0.00 36 1007.6
20260504171509 64 263 7.0 15.6 0.00 0.00 0.00 36 1007.8
20260504081537 43 148 1.7 7.0 0.00 0.00 0.00 64 1010.5
20260504050014 41 166 0.0 3.5 0.00 0.00 0.00 61 1010.7
20260504044513 40 276 0.0 0.9 0.00 0.00 0.00 62 1010.7
20260504043012 40 281 0.0 1.7 0.00 0.00 0.00 62 1010.6
20260504041510 40 154 0.0 3.5 0.00 0.00 0.00 64 1010.6
20260504040008 40 231 0.0 3.5 0.00 0.00 0.00 64 1010.4
20260504034506 40 263 0.0 1.7 0.00 0.05 0.00 64 1010.4
20260504033005 40 297 0.0 1.7 0.00 0.05 0.00 65 1010.4
20260504031505 40 221 0.0 0.9 0.00 0.05 0.00 65 1010.3
20260504030004 41 252 0.0 1.7 0.00 0.05 0.00 64 1010.2
20260504024505 41 226 0.0 1.7 0.00 0.08 0.00 64 1010.3
20260504023003 42 235 0.0 0.9 0.00 0.08 0.00 62 1010.3
20260504021503 42 271 0.0 0.9 0.00 0.08 0.00 61 1010.4
20260504020002 42 297 0.0 0.9 0.00 0.08 0.00 59 1010.2
20260504014504 42 248 0.0 0.9 0.00 0.08 0.00 60 1010.3
20260504013001 43 316 0.0 0.9 0.00 0.08 0.00 59 1010.2
20260504011501 43 298 0.0 0.9 0.00 0.08 0.00 59 1009.9
20260504010123 43 302 0.0 0.9 0.00 0.08 0.00 58 1009.9
20260504004559 43 294 0.0 0.0 0.00 0.08 0.00 59 1009.6
20260504003059 43 281 0.0 0.9 0.00 0.08 0.00 58 1009.5
20260504001611 44 288 0.0 1.7 0.00 0.08 0.00 57 1009.4
20260504000105 44 300 0.0 0.9 0.00 0.08 0.00 56 1009.1
20260503234658 45 283 0.0 5.2 0.00 0.10 0.00 55 1009.0
20260503233056 46 291 0.0 2.6 0.00 0.10 0.00 53 1008.8
20260503231557 47 256 0.0 3.5 0.00 0.10 0.00 52 1008.7
20260503230059 47 232 0.9 4.3 0.00 0.10 0.00 49 1008.5
20260503224555 48 283 0.9 6.1 0.00 0.18 0.00 47 1008.3
20260503223055 48 301 0.9 6.1 0.00 0.18 0.00 47 1008.2
20260503221553 49 318 0.9 7.0 0.00 0.18 0.00 46 1008.0
20260503220052 49 295 0.9 7.0 0.00 0.18 0.00 47 1007.9
20260503214555 49 330 0.0 5.2 0.00 0.21 0.00 46 1007.8
20260503213117 49 257 2.6 7.8 0.00 0.21 0.00 44 1007.7